QPF
0.01 0.03 0.06 0.12 0.12 0.03 0.02 0.06 0.13 0.08 0.02 0.01 0.00 0.00 0.00 0.00 0.00 0.00 0.00 0.00 0.00 0.00 0.00 0.00 0.00 0.00 0.00 0.00 0.00 0.00 0.00 0.00 0.00 0.00 0.00 0.00 0.00 0.00
0.03 0.03 0.06 0.10 0.12 0.06 0.08 0.09 0.02 0.00 0.00 0.00 0.00 0.00 0.00 0.00 0.00 0.00 0.00 0.00 0.00 0.00 0.00 0.00 0.00 0.00 0.00 0.00 0.00 0.00 0.00 0.00 0.00 0.00 0.00 0.01 0.01 0.01
0.03 0.02 0.05 0.20 0.27 0.13 0.08 0.07 0.02 0.00 0.00 0.00 0.00 0.00 0.00 0.00 0.00 0.00 0.00 0.00 0.00 0.00 0.00 0.00 0.00 0.00 0.00 0.00 0.00 0.00 0.00 0.00 0.00 0.00 0.00 0.00 0.00 0.00
0.03 0.03 0.02 0.06 0.14 0.16 0.05 0.01 0.00 0.00 0.00 0.00 0.00 0.00 0.00 0.00 0.00 0.00 0.00 0.00 0.00 0.00 0.00 0.00 0.00 0.00 0.00 0.00 0.00 0.00 0.00 0.00 0.00 0.00 0.00 0.00 0.00 0.00
0.02 0.03 0.06 0.05 0.05 0.04 0.02 0.00 0.00 0.00 0.00 0.00 0.00 0.00 0.00 0.00 0.00 0.00 0.00 0.00 0.00 0.00 0.00 0.00 0.00 0.00 0.00 0.00 0.00 0.00 0.00 0.00 0.00 0.00 0.00 0.00 0.00 0.02
0.03 0.03 0.05 0.04 0.04 0.06 0.02 0.00 0.00 0.00 0.00 0.00 0.00 0.00 0.00 0.00 0.00 0.00 0.00 0.00 0.00 0.00 0.00 0.00 0.00 0.00 0.00 0.00 0.00 0.00 0.00 0.00 0.00 0.00 0.00 0.00 0.00 0.03
0.01 0.02 0.03 0.04 0.04 0.05 0.01 0.00 0.00 0.00 0.00 0.00 0.00 0.00 0.00 0.00 0.00 0.00 0.00 0.00 0.00 0.00 0.00 0.00 0.00 0.00 0.00 0.00 0.00 0.00 0.00 0.00 0.00 0.00 0.00 0.00 0.00 0.05
0.00 0.02 0.03 0.05 0.03 0.02 0.01 0.00 0.00 0.00 0.00 0.00 0.00 0.00 0.00 0.00 0.00 0.00 0.00 0.00 0.00 0.00 0.00 0.00 0.00 0.00 0.00 0.00 0.00 0.00 0.00 0.00 0.00 0.00 0.00 0.00 0.00 0.01
0.00 0.00 0.00 0.00 0.00 0.02 0.04 0.04 0.02 0.01 0.00 0.00 0.00 0.00 0.00 0.00 0.00 0.00 0.00 0.00 0.00 0.00 0.00 0.00 0.00 0.00 0.00 0.00 0.00 0.00 0.00 0.00 0.00 0.00 0.00 0.00 0.00 0.00
0.00 0.00 0.00 0.00 0.00 0.00 0.00 0.01 0.01 0.01 0.00 0.00 0.00 0.00 0.00 0.00 0.00 0.00 0.00 0.00 0.00 0.00 0.00 0.00 0.00 0.00 0.00 0.00 0.00 0.00 0.00 0.00 0.00 0.00 0.00 0.00 0.00 0.00
0.00 0.00 0.00 0.00 0.00 0.00 0.00 0.00 0.00 0.00 0.00 0.00 0.00 0.00 0.00 0.00 0.00 0.00 0.00 0.00 0.00 0.00 0.00 0.00 0.00 0.00 0.00 0.00 0.00 0.00 0.00 0.00 0.00 0.00 0.00 0.00 0.00 0.00
0.00 0.00 0.00 0.00 0.00 0.00 0.00 0.00 0.00 0.00 0.00 0.00 0.00 0.00 0.00 0.00 0.00 0.00 0.00 0.00 0.00 0.00 0.00 0.00 0.00 0.00 0.00 0.00 0.00 0.00 0.00 0.00 0.00 0.00 0.00 0.00 0.00 0.00
0.00 0.00 0.00 0.00 0.00 0.00 0.00 0.00 0.00 0.00 0.00 0.00 0.00 0.00 0.00 0.00 0.00 0.00 0.00 0.00 0.00 0.00 0.00 0.00 0.00 0.00 0.00 0.00 0.00 0.00 0.00 0.00 0.00 0.00 0.00 0.00 0.00 0.00
0.00 0.00 0.00 0.01 0.01 0.00 0.00 0.00 0.00 0.00 0.00 0.00 0.00 0.00 0.00 0.00 0.00 0.00 0.00 0.00 0.00 0.00 0.00 0.00 0.00 0.00 0.00 0.00 0.00 0.00 0.00 0.00 0.00 0.00 0.00 0.00 0.00 0.00
0.00 0.01 0.01 0.02 0.02 0.01 0.01 0.01 0.00 0.00 0.00 0.00 0.00 0.00 0.00 0.00 0.00 0.00 0.00 0.00 0.00 0.00 0.00 0.00 0.00 0.00 0.00 0.00 0.00 0.00 0.00 0.00 0.00 0.00 0.00 0.00 0.00 0.00
0.01 0.02 0.02 0.02 0.03 0.03 0.04 0.03 0.01 0.00 0.00 0.00 0.00 0.00 0.00 0.00 0.00 0.00 0.00 0.00 0.00 0.00 0.00 0.00 0.00 0.00 0.00 0.00 0.00 0.00 0.00 0.00 0.00 0.00 0.00 0.00 0.00 0.00
0.01 0.01 0.02 0.04 0.05 0.06 0.04 0.03 0.04 0.02 0.02 0.00 0.01 0.00 0.00 0.00 0.00 0.00 0.00 0.00 0.00 0.00 0.00 0.00 0.00 0.00 0.00 0.00 0.00 0.00 0.00 0.00 0.00 0.00 0.00 0.00 0.00 0.00
0.01 0.01 0.01 0.02 0.04 0.04 0.07 0.08 0.07 0.05 0.05 0.06 0.05 0.03 0.00 0.00 0.00 0.00 0.00 0.00 0.00 0.00 0.00 0.00 0.00 0.00 0.00 0.00 0.00 0.00 0.00 0.00 0.00 0.00 0.00 0.00 0.00 0.00
0.00 0.00 0.01 0.01 0.02 0.05 0.07 0.09 0.09 0.06 0.05 0.11 0.14 0.10 0.04 0.01 0.00 0.00 0.00 0.00 0.00 0.00 0.00 0.00 0.00 0.00 0.00 0.00 0.00 0.00 0.00 0.00 0.00 0.00 0.00 0.00 0.00 0.00
0.00 0.00 0.01 0.02 0.02 0.04 0.06 0.08 0.08 0.10 0.12 0.10 0.10 0.06 0.05 0.03 0.00 0.00 0.00 0.00 0.00 0.00 0.00 0.00 0.00 0.00 0.00 0.00 0.00 0.00 0.00 0.00 0.00 0.00 0.00 0.00 0.00 0.00
0.00 0.00 0.00 0.02 0.03 0.03 0.06 0.08 0.10 0.10 0.11 0.12 0.11 0.07 0.04 0.03 0.01 0.01 0.01 0.00 0.00 0.00 0.00 0.00 0.00 0.00 0.00 0.00 0.00 0.00 0.00 0.00 0.00 0.00 0.00 0.00 0.00 0.00
0.00 0.00 0.00 0.01 0.01 0.02 0.04 0.07 0.09 0.08 0.08 0.09 0.07 0.06 0.06 0.04 0.02 0.02 0.02 0.01 0.00 0.00 0.00 0.00 0.00 0.00 0.00 0.00 0.00 0.00 0.00 0.00 0.00 0.00 0.00 0.00 0.00 0.00
0.00 0.00 0.00 0.01 0.01 0.02 0.04 0.06 0.06 0.05 0.02 0.02 0.04 0.05 0.04 0.05 0.03 0.01 0.01 0.01 0.00 0.00 0.00 0.00 0.00 0.00 0.00 0.00 0.00 0.00 0.00 0.00 0.00 0.00 0.00 0.00 0.00 0.00
MSLP
1012.33 1012.84 1012.91 1013.02 1012.92 1013.31 1013.58 1013.72 1014.14 1014.56 1015.56 1016.06 1016.20 1016.62 1017.11 1017.58 1017.93 1018.22 1018.70 1018.99 1018.95 1018.95 1019.26 1019.87 1019.67 1019.61 1019.54 1019.81 1019.70 1019.80 1019.90 1019.67 1019.50 1019.24 1018.61 1018.58 1018.10 1017.78
1012.12 1012.24 1012.55 1012.41 1012.74 1012.92 1013.24 1013.50 1013.78 1014.38 1015.26 1015.66 1016.22 1016.81 1016.97 1017.20 1017.64 1017.95 1018.35 1018.51 1018.76 1018.89 1019.00 1019.31 1019.50 1019.45 1019.34 1019.57 1019.59 1019.60 1019.74 1019.21 1019.48 1019.15 1018.59 1018.61 1017.93 1017.61
1011.59 1011.65 1011.80 1012.01 1012.19 1012.23 1012.85 1012.95 1013.66 1013.95 1014.74 1015.96 1016.26 1016.71 1017.18 1017.54 1017.96 1018.11 1018.35 1018.56 1018.81 1018.98 1018.91 1019.24 1019.75 1019.64 1019.58 1019.54 1019.64 1019.74 1019.70 1019.56 1019.58 1019.19 1018.69 1018.90 1018.19 1017.55
1011.33 1011.28 1011.15 1011.53 1011.81 1012.03 1012.07 1012.80 1013.47 1013.82 1014.51 1015.77 1016.53 1017.24 1017.50 1017.76 1018.09 1018.53 1018.50 1018.68 1018.86 1019.06 1019.03 1019.14 1019.59 1019.68 1019.78 1019.82 1019.65 1019.90 1019.92 1019.76 1019.52 1019.29 1018.98 1018.70 1017.78 1017.48
1010.95 1011.09 1010.85 1011.12 1011.35 1011.67 1011.84 1012.50 1013.14 1013.62 1014.42 1015.21 1016.38 1016.94 1017.43 1017.91 1018.42 1018.73 1018.78 1018.98 1019.08 1018.98 1019.11 1018.98 1019.03 1019.31 1019.57 1019.69 1019.70 1019.88 1019.80 1019.84 1019.31 1019.15 1018.96 1018.66 1017.73 1017.22
1010.74 1010.50 1010.75 1010.65 1010.91 1011.31 1011.71 1012.23 1012.83 1013.51 1014.23 1014.95 1016.06 1016.72 1017.09 1017.63 1017.87 1018.36 1018.71 1018.69 1019.01 1018.87 1018.95 1018.86 1018.92 1019.04 1019.15 1019.25 1019.53 1019.87 1019.79 1019.67 1019.52 1019.00 1019.03 1018.69 1018.03 1017.22
1010.53 1010.59 1010.46 1010.53 1010.72 1011.07 1011.57 1011.65 1012.45 1013.35 1013.93 1014.75 1015.48 1016.06 1016.77 1017.32 1017.61 1017.86 1018.28 1018.65 1018.61 1018.84 1019.03 1019.12 1019.46 1019.26 1019.26 1019.21 1019.65 1019.67 1019.73 1019.52 1019.39 1019.20 1018.97 1018.26 1018.19 1017.84
1010.67 1010.67 1010.53 1010.62 1010.80 1010.85 1011.23 1011.28 1011.91 1012.50 1013.46 1013.97 1014.67 1015.26 1015.59 1015.95 1016.66 1017.13 1017.76 1018.40 1018.85 1018.27 1018.76 1019.02 1018.85 1019.04 1019.04 1019.26 1019.64 1019.66 1019.83 1019.32 1018.95 1018.61 1018.88 1019.14 1018.38 1017.93
1010.47 1010.63 1010.67 1010.58 1010.64 1010.82 1010.90 1011.01 1011.52 1011.96 1012.50 1013.30 1013.50 1013.94 1014.68 1015.08 1015.96 1016.64 1017.23 1017.55 1017.70 1017.82 1018.44 1018.62 1018.68 1018.96 1019.07 1019.00 1018.94 1019.33 1019.19 1019.20 1019.04 1018.82 1018.58 1018.91 1018.94 1018.44
1010.22 1010.47 1010.64 1010.64 1010.59 1010.51 1010.62 1011.23 1011.47 1011.59 1011.85 1012.89 1012.84 1013.04 1013.45 1013.90 1014.84 1015.14 1015.81 1016.75 1017.13 1017.59 1017.90 1018.62 1018.76 1019.08 1019.39 1019.30 1018.89 1019.02 1018.50 1018.93 1019.00 1019.53 1018.88 1018.71 1019.29 1019.05
1010.11 1010.05 1010.25 1010.33 1010.36 1010.59 1010.75 1011.16 1011.40 1011.56 1012.22 1012.53 1012.42 1012.66 1013.21 1013.58 1014.06 1015.10 1015.85 1016.63 1016.93 1017.32 1017.64 1018.34 1018.86 1019.31 1019.73 1019.51 1019.31 1018.69 1018.32 1018.73 1019.10 1019.09 1019.25 1019.11 1019.80 1019.86
1009.87 1009.48 1009.62 1009.77 1009.99 1010.20 1010.69 1010.93 1011.18 1011.92 1012.68 1012.50 1012.63 1012.87 1012.71 1013.41 1013.70 1014.09 1014.85 1015.32 1016.13 1016.91 1016.82 1017.64 1018.64 1019.10 1019.56 1019.31 1019.22 1019.09 1019.07 1018.63 1018.85 1018.85 1019.44 1019.67 1020.18 1020.52
1009.59 1009.44 1009.19 1009.14 1009.19 1009.59 1009.75 1010.18 1010.58 1011.34 1011.76 1012.54 1013.06 1012.84 1013.23 1013.66 1013.82 1014.35 1014.56 1014.75 1015.39 1015.95 1016.21 1016.80 1018.08 1019.00 1019.31 1019.71 1019.24 1019.12 1019.05 1019.27 1018.86 1019.10 1019.54 1019.92 1020.21 1020.62
1009.27 1008.96 1008.43 1008.40 1008.36 1008.66 1009.02 1009.35 1010.16 1010.59 1011.18 1012.10 1012.86 1013.34 1013.16 1013.37 1014.01 1014.57 1014.48 1014.79 1014.93 1015.21 1015.88 1016.28 1017.47 1018.02 1019.17 1020.16 1019.50 1019.17 1019.31 1019.19 1019.05 1019.82 1020.03 1020.29 1020.32 1020.54
1009.00 1008.76 1008.28 1007.82 1007.67 1008.00 1008.21 1008.76 1009.17 1009.98 1010.83 1011.40 1012.00 1012.49 1012.82 1012.96 1014.00 1014.86 1015.38 1015.44 1015.43 1015.59 1015.81 1016.39 1016.39 1017.53 1018.48 1019.38 1019.15 1019.05 1019.36 1018.74 1019.37 1019.94 1020.14 1020.49 1020.80 1020.89
1008.51 1008.27 1007.95 1007.27 1007.20 1007.37 1007.67 1007.95 1008.51 1009.14 1009.84 1010.48 1010.84 1011.56 1012.46 1013.12 1014.32 1014.65 1015.38 1015.63 1015.80 1016.35 1016.50 1016.66 1016.52 1017.12 1018.58 1018.70 1018.66 1018.93 1018.57 1019.04 1019.38 1019.67 1019.85 1020.33 1020.56 1020.75
1008.31 1007.96 1007.50 1007.25 1006.98 1007.02 1007.27 1007.59 1007.94 1008.59 1009.27 1009.87 1010.43 1011.15 1012.09 1012.89 1013.61 1014.35 1014.65 1015.59 1015.78 1016.42 1016.68 1016.99 1016.92 1017.12 1017.51 1017.87 1018.57 1018.29 1018.32 1018.89 1019.06 1019.28 1019.72 1020.37 1020.48 1020.46
1007.97 1007.66 1007.30 1006.97 1006.85 1006.91 1007.08 1007.30 1007.58 1008.18 1008.66 1009.33 1010.08 1010.61 1011.51 1012.17 1012.98 1013.71 1014.26 1014.88 1015.47 1015.95 1016.48 1016.81 1017.07 1017.18 1017.48 1017.67 1017.27 1017.61 1018.10 1018.70 1018.93 1019.19 1019.53 1020.23 1020.32 1020.03
1007.58 1007.12 1006.92 1006.65 1006.43 1006.44 1006.70 1006.90 1007.17 1007.48 1008.17 1008.90 1009.33 1010.00 1010.78 1011.57 1012.37 1013.13 1013.40 1014.14 1014.98 1015.55 1015.99 1016.43 1016.92 1017.10 1017.83 1017.61 1017.00 1016.63 1017.28 1018.10 1018.65 1019.36 1019.33 1019.60 1019.93 1019.85
1007.54 1007.32 1006.74 1006.52 1006.27 1006.14 1006.27 1006.35 1006.70 1007.08 1007.47 1008.13 1008.69 1009.27 1009.98 1010.64 1011.71 1012.39 1012.69 1013.25 1014.01 1015.07 1015.78 1016.24 1016.37 1016.26 1016.47 1016.91 1016.87 1016.59 1016.59 1017.42 1018.17 1018.91 1019.30 1019.30 1019.47 1019.37
1007.27 1007.01 1006.82 1006.33 1006.03 1005.89 1005.76 1005.86 1005.95 1006.29 1006.66 1006.99 1007.76 1008.34 1009.07 1009.84 1010.59 1011.39 1012.11 1012.65 1013.22 1014.37 1015.11 1015.53 1015.39 1015.56 1016.19 1016.34 1016.73 1016.86 1016.75 1016.95 1017.46 1018.00 1018.62 1019.06 1019.33 1019.50
1006.73 1006.53 1006.33 1006.09 1005.78 1005.38 1005.15 1005.23 1005.38 1005.54 1005.90 1006.27 1006.85 1007.34 1008.08 1008.89 1009.64 1010.52 1011.36 1012.10 1012.42 1013.49 1014.15 1014.86 1015.07 1015.66 1016.04 1016.07 1016.52 1016.77 1016.88 1017.12 1017.27 1017.43 1017.61 1017.76 1018.53 1018.92
1006.07 1005.86 1005.69 1005.50 1005.24 1004.89 1004.60 1004.56 1004.61 1004.75 1005.02 1005.43 1005.90 1006.52 1007.19 1007.96 1008.72 1009.56 1010.48 1011.12 1011.74 1012.84 1013.62 1014.47 1014.89 1015.19 1015.50 1015.73 1016.15 1016.61 1016.89 1017.08 1017.26 1017.47 1017.62 1017.60 1017.83 1018.18
Thickness
5603 5599 5598 5599 5601 5595 5592 5593 5593 5590 5583 5579 5581 5575 5572 5569 5566 5565 5561 5557 5557 5558 5552 5545 5545 5543 5541 5536 5535 5530 5527 5527 5526 5526 5529 5524 5527 5530
5593 5592 5591 5593 5593 5591 5586 5585 5585 5580 5575 5572 5567 5564 5564 5564 5562 5560 5557 5554 5551 5549 5547 5542 5539 5537 5536 5531 5528 5525 5520 5523 5515 5516 5520 5516 5522 5523
5587 5587 5587 5585 5588 5588 5581 5583 5576 5573 5571 5559 5558 5555 5554 5553 5551 5549 5546 5544 5540 5537 5537 5533 5528 5526 5524 5521 5517 5512 5509 5508 5505 5507 5510 5506 5512 5516
5579 5581 5584 5582 5579 5577 5579 5574 5568 5567 5565 5555 5548 5544 5544 5543 5540 5536 5535 5532 5530 5527 5526 5523 5518 5516 5511 5508 5506 5501 5496 5496 5497 5497 5498 5500 5508 5509
5570 5571 5575 5573 5572 5570 5569 5565 5561 5558 5554 5551 5542 5538 5534 5530 5525 5522 5522 5520 5519 5518 5515 5514 5513 5510 5505 5500 5497 5492 5489 5486 5489 5490 5490 5491 5500 5502
5562 5566 5566 5568 5566 5563 5560 5555 5552 5548 5543 5540 5530 5527 5525 5520 5519 5516 5514 5513 5510 5509 5507 5506 5504 5503 5499 5495 5490 5483 5481 5479 5477 5481 5479 5481 5488 5495
5550 5551 5552 5553 5553 5551 5549 5546 5541 5536 5532 5527 5523 5520 5514 5510 5509 5508 5506 5503 5503 5501 5498 5495 5491 5492 5490 5486 5480 5476 5473 5472 5471 5472 5472 5478 5479 5483
5534 5535 5537 5537 5535 5538 5536 5536 5533 5529 5523 5521 5516 5514 5512 5509 5504 5501 5497 5492 5493 5495 5489 5487 5487 5485 5483 5478 5471 5467 5462 5466 5468 5470 5467 5464 5469 5475
5517 5517 5518 5521 5522 5521 5524 5526 5522 5521 5518 5511 5514 5510 5505 5502 5498 5492 5489 5489 5490 5487 5482 5480 5479 5477 5474 5472 5469 5462 5460 5459 5459 5458 5461 5459 5458 5462
5499 5498 5499 5500 5503 5506 5508 5506 5507 5509 5507 5498 5502 5503 5501 5499 5494 5493 5490 5485 5482 5479 5475 5471 5469 5466 5462 5463 5462 5456 5456 5452 5451 5446 5451 5452 5446 5450
5479 5481 5481 5483 5485 5487 5488 5488 5488 5491 5488 5487 5490 5490 5487 5486 5486 5479 5475 5473 5472 5469 5467 5463 5457 5453 5450 5452 5452 5452 5452 5446 5443 5443 5442 5443 5437 5438
5458 5465 5467 5467 5467 5469 5468 5469 5472 5469 5465 5470 5472 5474 5476 5474 5474 5473 5471 5471 5465 5461 5463 5458 5449 5445 5440 5445 5445 5445 5440 5439 5435 5437 5433 5432 5429 5429
5441 5445 5448 5452 5454 5455 5458 5459 5460 5454 5458 5456 5453 5459 5458 5457 5459 5457 5459 5460 5457 5457 5455 5452 5442 5434 5432 5431 5436 5435 5433 5428 5431 5429 5425 5422 5421 5422
5421 5427 5434 5437 5441 5444 5447 5449 5444 5447 5447 5445 5441 5441 5446 5447 5443 5444 5448 5447 5448 5449 5447 5446 5437 5434 5423 5416 5425 5427 5423 5424 5425 5419 5418 5414 5415 5416
5396 5405 5413 5420 5426 5430 5435 5436 5434 5435 5433 5434 5435 5433 5432 5435 5432 5428 5427 5430 5432 5435 5436 5435 5436 5427 5421 5413 5420 5418 5417 5423 5416 5413 5412 5411 5410 5411
5368 5379 5390 5401 5408 5415 5419 5424 5422 5424 5424 5425 5427 5425 5423 5421 5414 5415 5414 5416 5418 5417 5418 5421 5426 5422 5410 5412 5412 5409 5416 5413 5410 5410 5409 5407 5405 5406
5335 5348 5361 5372 5383 5392 5399 5405 5409 5410 5411 5412 5412 5413 5411 5408 5407 5404 5406 5403 5405 5405 5407 5408 5411 5412 5412 5409 5401 5406 5411 5407 5406 5406 5404 5400 5401 5402
5313 5325 5336 5346 5357 5367 5376 5383 5389 5394 5397 5397 5398 5401 5400 5400 5399 5396 5397 5397 5396 5396 5396 5398 5399 5398 5398 5399 5404 5402 5402 5401 5400 5401 5399 5392 5393 5398
5294 5307 5317 5328 5338 5346 5354 5362 5370 5378 5380 5383 5387 5389 5390 5389 5390 5389 5392 5390 5388 5387 5387 5389 5386 5386 5380 5387 5396 5401 5398 5396 5395 5391 5392 5391 5390 5393
5273 5283 5297 5308 5319 5329 5338 5347 5355 5362 5369 5372 5375 5378 5383 5383 5380 5380 5385 5385 5385 5379 5376 5375 5380 5382 5386 5385 5388 5392 5395 5391 5389 5386 5384 5386 5388 5389
5257 5267 5277 5290 5302 5314 5325 5335 5346 5354 5361 5367 5368 5371 5374 5376 5376 5377 5377 5379 5380 5373 5373 5373 5376 5377 5379 5383 5380 5381 5386 5386 5385 5382 5380 5379 5377 5379
5246 5255 5265 5275 5287 5302 5315 5326 5336 5346 5353 5358 5363 5368 5370 5371 5370 5370 5370 5370 5375 5369 5369 5363 5367 5368 5370 5373 5369 5373 5375 5376 5377 5378 5380 5381 5376 5370
5235 5243 5254 5265 5275 5289 5304 5317 5329 5338 5346 5353 5360 5363 5365 5366 5366 5368 5365 5366 5368 5363 5359 5357 5360 5362 5364 5367 5366 5364 5364 5366 5369 5370 5371 5373 5373 5372